| time (UTC) | temp F | wind direction | speed MPH | gust MPH | rain 1hr in | rain 24hr in | rain mn in | humidity % | barometer mb |
| 20260504140513 | 76 | 358 | 4.0 | 2.0 | 0.00 | 0.00 | 0.00 | 39 | 1013.0 |
| 20260504130511 | 76 | 351 | 4.0 | 3.0 | 0.00 | 0.00 | 0.00 | 44 | 1013.0 |
| 20260504110508 | 73 | 14 | 3.0 | 2.0 | 0.00 | 0.00 | 0.00 | 44 | 1014.0 |
| 20260504100507 | 71 | 37 | 4.0 | 3.0 | 0.00 | 0.00 | 0.00 | 46 | 1014.0 |
| 20260504082004 | 67 | 332 | 5.0 | 7.0 | 0.00 | 0.00 | 0.00 | 51 | 1015.0 |
| 20260504080503 | 66 | 332 | 5.0 | 7.0 | 0.00 | 0.00 | 0.00 | 57 | 1014.0 |
| 20260504050459 | 55 | 200 | 3.0 | 5.0 | 0.00 | 0.00 | 0.00 | 66 | 1014.0 |
| 20260504044958 | 55 | 200 | 3.0 | 5.0 | 0.00 | 0.00 | 0.00 | 72 | 1014.0 |
| 20260504043458 | 55 | 200 | 3.0 | 5.0 | 0.00 | 0.00 | 0.00 | 72 | 1014.0 |
| 20260504041958 | 54 | 158 | 5.0 | 6.0 | 0.00 | 0.00 | 0.00 | 66 | 1014.0 |
| 20260504040457 | 54 | 158 | 5.0 | 6.0 | 0.00 | 0.00 | 0.00 | 66 | 1014.0 |
| 20260504034957 | 53 | 158 | 5.0 | 6.0 | 0.00 | 0.00 | 0.00 | 71 | 1014.0 |
| 20260504033456 | 53 | 158 | 5.0 | 6.0 | 0.00 | 0.00 | 0.00 | 71 | 1014.0 |
| 20260504031956 | 54 | 161 | 5.0 | 6.0 | 0.00 | 0.00 | 0.00 | 64 | 1014.0 |
| 20260504030456 | 54 | 161 | 5.0 | 6.0 | 0.00 | 0.00 | 0.00 | 62 | 1014.0 |
| 20260504024956 | 53 | 161 | 5.0 | 6.0 | 0.00 | 0.00 | 0.00 | 68 | 1014.0 |
| 20260504023455 | 53 | 161 | 5.0 | 6.0 | 0.00 | 0.00 | 0.00 | 67 | 1014.0 |
| 20260504021955 | 55 | 153 | 4.0 | 5.0 | 0.00 | 0.00 | 0.00 | 61 | 1014.0 |
| 20260504020454 | 54 | 153 | 4.0 | 5.0 | 0.00 | 0.00 | 0.00 | 64 | 1014.0 |
| 20260504014954 | 54 | 153 | 4.0 | 5.0 | 0.00 | 0.00 | 0.00 | 64 | 1014.0 |
| 20260504013454 | 55 | 153 | 4.0 | 5.0 | 0.00 | 0.00 | 0.00 | 64 | 1014.0 |
| 20260504011953 | 56 | 126 | 1.0 | 2.0 | 0.00 | 0.00 | 0.00 | 57 | 1014.0 |
| 20260504010453 | 55 | 126 | 1.0 | 2.0 | 0.00 | 0.00 | 0.00 | 62 | 1014.0 |
| 20260504004953 | 55 | 140 | 3.0 | 3.0 | 0.00 | 0.00 | 0.00 | 62 | 1014.0 |
| 20260504003452 | 55 | 140 | 3.0 | 3.0 | 0.00 | 0.00 | 0.00 | 61 | 1014.0 |
| 20260504001952 | 57 | 297 | 4.0 | 4.0 | 0.00 | 0.00 | 0.00 | 55 | 1013.0 |
| 20260504000452 | 57 | 297 | 4.0 | 4.0 | 0.00 | 0.00 | 0.00 | 53 | 1013.0 |
| 20260503234951 | 56 | 297 | 4.0 | 4.0 | 0.00 | 0.00 | 0.00 | 60 | 1014.0 |
| 20260503233451 | 56 | 297 | 4.0 | 4.0 | 0.00 | 0.00 | 0.00 | 60 | 1014.0 |
| 20260503231951 | 58 | 112 | 2.0 | 3.0 | 0.00 | 0.00 | 0.00 | 51 | 1013.0 |
| 20260503230450 | 59 | 112 | 2.0 | 3.0 | 0.00 | 0.00 | 0.00 | 50 | 1013.0 |
| 20260503224950 | 58 | 112 | 2.0 | 3.0 | 0.00 | 0.00 | 0.00 | 58 | 1013.0 |
| 20260503223449 | 58 | 112 | 2.0 | 3.0 | 0.00 | 0.00 | 0.00 | 57 | 1013.0 |
| 20260503221949 | 60 | 141 | 3.0 | 7.0 | 0.00 | 0.00 | 0.00 | 48 | 1013.0 |
| 20260503220449 | 59 | 141 | 3.0 | 7.0 | 0.00 | 0.00 | 0.00 | 55 | 1013.0 |
| 20260503214948 | 59 | 141 | 3.0 | 7.0 | 0.00 | 0.00 | 0.00 | 55 | 1013.0 |
| 20260503213448 | 60 | 141 | 3.0 | 7.0 | 0.00 | 0.00 | 0.00 | 54 | 1013.0 |
| 20260503211948 | 62 | 157 | 8.0 | 21.0 | 0.00 | 0.00 | 0.00 | 46 | 1013.0 |
| 20260503210447 | 63 | 157 | 8.0 | 21.0 | 0.00 | 0.00 | 0.00 | 45 | 1013.0 |
| 20260503204947 | 61 | 157 | 8.0 | 21.0 | 0.00 | 0.00 | 0.00 | 51 | 1013.0 |
| 20260503203447 | 62 | 157 | 8.0 | 21.0 | 0.00 | 0.00 | 0.00 | 51 | 1013.0 |
| 20260503201946 | 64 | 157 | 9.0 | 24.0 | 0.00 | 0.00 | 0.00 | 42 | 1013.0 |
| 20260503200446 | 63 | 157 | 9.0 | 24.0 | 0.00 | 0.00 | 0.00 | 48 | 1013.0 |
| 20260503194946 | 63 | 157 | 9.0 | 24.0 | 0.00 | 0.00 | 0.00 | 48 | 1013.0 |
| 20260503193445 | 64 | 157 | 9.0 | 24.0 | 0.00 | 0.00 | 0.00 | 48 | 1013.0 |
| 20260503191945 | 66 | 147 | 9.0 | 23.0 | 0.00 | 0.00 | 0.00 | 41 | 1013.0 |
| 20260503190444 | 66 | 147 | 9.0 | 23.0 | 0.00 | 0.00 | 0.00 | 48 | 1013.0 |
| 20260503184944 | 66 | 147 | 9.0 | 23.0 | 0.00 | 0.00 | 0.00 | 48 | 1013.0 |
| 20260503183444 | 67 | 140 | 8.0 | 20.0 | 0.00 | 0.00 | 0.00 | 48 | 1013.0 |
| 20260503181943 | 70 | 141 | 8.0 | 18.0 | 0.00 | 0.00 | 0.00 | 35 | 1013.0 |
| 20260503180443 | 70 | 141 | 8.0 | 18.0 | 0.00 | 0.00 | 0.00 | 46 | 1013.0 |
| 20260503174943 | 71 | 141 | 8.0 | 18.0 | 0.00 | 0.00 | 0.00 | 46 | 1013.0 |
| 20260503173442 | 71 | 141 | 8.0 | 18.0 | 0.00 | 0.00 | 0.00 | 46 | 1013.0 |
| 20260503171942 | 73 | 141 | 9.0 | 17.0 | 0.00 | 0.00 | 0.00 | 32 | 1013.0 |
| 20260503170442 | 74 | 141 | 9.0 | 17.0 | 0.00 | 0.00 | 0.00 | 31 | 1013.0 |
| 20260503150439 | 77 | 151 | 9.0 | 10.0 | 0.00 | 0.00 | 0.00 | 27 | 1013.0 |